Weather History for KSGF - October, 2010

Change the Weather History Date:

Friday, October 22, 2010

  Actual Average Record
Temperature  
Mean Temperature 65 °F 56 °F  
Max Temperature 75 °F 67 °F 84 °F (1963)
Min Temperature 54 °F 45 °F 25 °F (1982)
Degree Days  
Heating Degree Days 0 10  
Month to date heating degree days 134 153  
Since 1 July heating degree days 162 208  
Cooling Degree Days 0 0  
Month to date cooling degree days 7 27  
Year to date cooling degree days 1731 1386  
Growing Degree Days 14 (Base 50)    
Moisture  
Dew Point 47 °F    
Average Humidity 58    
Maximum Humidity 71    
Minimum Humidity 44    
Precipitation  
Precipitation T in 0.13 in 1.64 in (1951)
Month to date precipitation 0.61 2.55  
Year to date precipitation 40.78 37.27  
Snow  
Snow 0.00 in - - ()
Month to date snowfall 0.0  
Since 1 July snowfall 0.0  
Since 1 September snowfall 0.0  
Snow Depth 0.00 in    
Sea Level Pressure  
Sea Level Pressure 30.00 in    
Wind  
Wind Speed 12 mph (SSE)    
Max Wind Speed 22 mph    
Max Gust Speed 29 mph    
Visibility 10 miles    
Events Rain    
T = Trace of Precipitation, MM = Missing Value Source: NWS Daily Summary

Daily Weather History Graph

Daily Weather History Graph

Search for Another Location

Airport or City:

Trip Planner

Search our weather history database for the weather conditions in past years. The results will help you decide how hot, cold, wet, or windy it might be!

Date:

Astronomy

Oct. 22, 2010 Rise Set
Actual Time 7:28 AM CDT 6:27 PM CDT
Civil Twilight 7:01 AM CDT 6:53 PM CDT
Nautical Twilight 6:31 AM CDT 7:24 PM CDT
Astronomical Twilight 6:00 AM CDT 7:54 PM CDT
Moon 5:59 PM CDT (10/22) 7:06 AM CDT (10/22)
Length of Visible Light 11h 52m
Length of Day
10h 59m
Full, 100% of the Moon is Illuminated
Oct 22
Full
Oct 22
Full
Oct 30
Last Quarter
Nov 5
New
Nov 13
First Quarter

Hourly Weather History & Observations

Time (CDT) Temp. Dew Point Humidity Pressure Visibility Wind Dir Wind Speed Gust Speed Precip Events Conditions
12:52 AM 54.0 °F 44.1 °F 69% 30.00 in 10.0 mi SE 9.2 mph - N/A   Partly Cloudy
1:52 AM 57.0 °F 44.1 °F 62% 29.99 in 10.0 mi SE 9.2 mph - N/A   Partly Cloudy
2:52 AM 55.9 °F 43.0 °F 62% 29.99 in 10.0 mi SE 9.2 mph - N/A   Clear
3:52 AM 55.9 °F 43.0 °F 62% 30.00 in 10.0 mi SE 9.2 mph - N/A   Clear
4:52 AM 55.9 °F 44.1 °F 64% 30.02 in 10.0 mi SE 5.8 mph - N/A   Clear
5:52 AM 57.0 °F 45.0 °F 64% 30.04 in 10.0 mi SE 9.2 mph - 0.00 in Rain Light Rain
6:52 AM 57.9 °F 43.0 °F 58% 30.04 in 10.0 mi SE 9.2 mph - 0.00 in   Overcast
7:52 AM 57.9 °F 43.0 °F 58% 30.04 in 10.0 mi SE 11.5 mph - N/A   Overcast
8:52 AM 59.0 °F 43.0 °F 55% 30.05 in 10.0 mi SE 11.5 mph - N/A   Clear
9:52 AM 63.0 °F 44.1 °F 50% 30.04 in 10.0 mi SE 15.0 mph - N/A   Clear
10:52 AM 66.0 °F 46.0 °F 48% 30.04 in 10.0 mi SE 15.0 mph 21.9 mph N/A   Clear
11:52 AM 68.0 °F 48.0 °F 49% 30.03 in 10.0 mi SE 17.3 mph - N/A   Clear
12:52 PM 72.0 °F 48.9 °F 44% 30.02 in 10.0 mi SSE 13.8 mph - N/A   Clear
1:52 PM 70.0 °F 50.0 °F 49% 30.02 in 10.0 mi South 13.8 mph - N/A   Clear
2:52 PM 72.0 °F 53.1 °F 51% 30.01 in 10.0 mi SSE 11.5 mph - N/A   Clear
3:52 PM 73.0 °F 53.1 °F 49% 29.99 in 10.0 mi South 11.5 mph - N/A   Clear
4:52 PM 71.1 °F 53.1 °F 53% 29.97 in 10.0 mi SE 11.5 mph - N/A   Scattered Clouds
5:52 PM 70.0 °F 52.0 °F 53% 29.95 in 10.0 mi SE 10.4 mph - N/A   Scattered Clouds
6:52 PM 69.1 °F 51.1 °F 53% 29.96 in 10.0 mi SSE 9.2 mph - N/A   Partly Cloudy
7:52 PM 69.1 °F 50.0 °F 51% 29.99 in 10.0 mi SSE 8.1 mph - N/A   Overcast
8:52 PM 66.9 °F 50.0 °F 54% 29.98 in 10.0 mi SSE 10.4 mph - 0.00 in   Overcast
9:52 PM 69.1 °F 48.0 °F 47% 29.97 in 10.0 mi SSE 19.6 mph - N/A   Partly Cloudy
10:52 PM 69.1 °F 48.0 °F 47% 29.96 in 10.0 mi SSE 18.4 mph 24.2 mph N/A   Mostly Cloudy
11:52 PM 68.0 °F 48.0 °F 49% 29.95 in 10.0 mi SSE 19.6 mph 26.5 mph N/A   Mostly Cloudy